Theta_e
316 316 317 317 319 321 322 323 324 324 324 324 324 323 323 323 322 321 324 318 317 318 317 317 316 316 316 314 316 320 317 318 319 320 319 320 320 316 321 322 323 323 330 330 326
317 317 317 318 320 321 322 323 324 324 324 324 323 323 323 322 322 323 320 316 318 321 320 316 314 315 312 313 315 316 316 319 318 316 319 320 316 318 320 321 322 322 321 321 321
315 317 317 319 320 321 322 323 324 324 323 323 322 322 322 322 324 316 317 318 321 323 320 315 316 314 314 313 315 317 317 319 317 317 317 318 317 318 320 321 321 321 319 317 315
315 316 317 318 319 321 323 323 323 323 323 322 322 322 322 323 325 317 319 322 323 322 316 316 314 315 315 314 314 315 315 319 316 315 315 317 316 319 319 318 317 316 315 314 312
318 319 320 321 322 323 322 322 322 322 322 322 322 322 323 324 326 322 321 320 318 318 317 315 314 314 315 314 315 316 315 316 315 315 315 316 316 318 316 314 314 315 314 312 311
322 322 323 322 322 322 322 322 322 321 321 321 321 322 322 327 322 322 322 320 319 319 319 316 313 312 313 314 314 315 315 314 314 314 315 315 316 316 315 313 313 313 311 310 310
323 323 323 323 322 322 322 322 322 322 321 321 321 321 322 324 321 323 324 322 322 320 316 316 314 312 312 314 315 315 313 311 312 313 314 313 314 315 313 313 313 311 310 309 308
317 319 322 323 322 322 323 323 322 321 321 321 321 320 324 323 323 324 325 325 324 320 318 317 314 312 313 313 314 314 313 311 311 312 313 312 313 313 312 312 310 310 309 308 307
313 313 314 315 316 317 320 322 320 320 321 320 321 321 327 325 323 324 324 324 324 322 322 319 313 313 314 314 312 312 310 311 312 313 312 312 315 313 311 313 311 310 308 308 306
310 311 312 312 314 314 315 317 318 318 319 320 321 323 323 325 324 324 323 323 323 323 321 314 312 314 313 312 314 313 312 311 312 313 312 311 314 314 313 313 312 311 309 308 306
309 310 310 312 314 313 315 316 318 318 317 323 324 324 324 324 324 321 319 316 319 323 321 315 313 314 314 314 315 314 314 312 312 314 313 313 312 314 313 311 311 310 310 308 305
308 310 311 313 311 313 314 315 311 309 316 317 320 321 323 323 325 323 321 318 321 326 320 318 317 316 317 317 316 315 314 313 312 313 313 311 312 312 314 313 312 311 310 307 306
307 308 312 312 310 311 313 314 315 315 317 318 318 320 322 322 325 325 318 319 324 324 321 318 319 319 319 318 316 315 315 314 313 313 313 312 313 313 313 313 312 312 311 307 306
309 311 312 309 309 310 311 310 312 312 317 319 319 319 320 323 326 324 324 319 321 321 320 319 318 319 317 316 316 315 315 315 314 312 311 313 310 312 313 315 314 312 309 309 307
309 308 309 308 310 311 311 310 312 314 320 319 319 320 321 324 325 325 324 325 324 321 321 322 321 321 321 318 318 319 319 316 314 313 314 314 313 311 314 314 312 310 309 306 305
307 307 307 308 308 309 312 312 311 316 318 317 318 320 324 323 325 321 324 324 324 327 326 322 320 321 320 321 320 320 314 314 314 312 313 314 313 311 312 315 313 311 309 307 304
305 307 305 306 309 308 311 311 312 317 314 315 319 320 320 323 325 326 318 325 327 330 331 328 326 324 320 317 315 314 313 313 313 313 314 313 313 313 312 314 313 311 310 307 305
304 306 306 305 305 309 311 313 317 313 313 312 314 315 316 317 321 324 321 317 316 324 326 331 333 326 320 314 315 313 313 314 315 317 316 314 315 311 311 311 312 312 309 307 305
304 305 305 305 304 305 311 314 313 311 311 312 313 312 313 315 317 320 322 321 316 318 326 326 324 320 320 315 315 315 313 313 314 314 315 314 312 312 311 310 309 311 310 307 305
305 305 305 304 306 307 310 314 313 310 310 311 314 313 313 314 316 318 318 316 315 315 320 324 323 316 314 316 315 313 314 314 314 316 318 315 314 316 313 311 311 310 310 309 306
304 305 304 304 306 307 309 312 311 311 310 310 311 311 311 310 313 317 317 316 315 315 316 319 322 316 313 313 315 313 314 314 314 312 313 315 315 315 313 312 311 310 309 308 305
302 305 304 305 306 306 307 311 311 311 310 310 311 313 311 313 313 316 316 315 311 311 317 317 317 316 312 312 312 312 312 313 312 312 313 313 310 314 311 312 311 311 310 308 304
302 299 304 306 307 304 307 309 310 311 311 310 312 313 313 313 312 312 313 312 311 311 313 313 315 315 314 311 310 310 311 314 314 313 311 310 309 314 314 313 312 311 308 308 302
295 302 303 307 305 303 306 308 310 309 310 309 311 312 312 312 313 312 312 311 310 311 308 311 313 314 315 313 312 311 311 312 313 315 311 312 310 312 312 312 309 307 307 306 301
295 300 303 306 306 304 304 306 308 309 310 308 309 310 310 314 313 312 312 310 309 309 307 312 312 312 314 313 313 313 314 314 314 313 312 309 311 310 310 310 308 305 307 306 303
298 299 301 304 306 306 305 307 307 308 309 309 309 309 310 312 312 314 313 312 310 308 309 311 313 310 310 313 313 313 312 312 312 313 313 313 311 310 309 308 308 305 306 307 304
296 296 301 305 306 307 305 305 306 307 308 309 308 308 311 311 312 311 311 312 313 313 311 312 311 310 313 313 313 314 310 310 311 311 311 312 310 309 309 309 307 305 304 304 304
Wind_Speed
13 12 12 10 10 10 11 12 14 16 18 21 24 27 30 33 34 29 8 4 3 10 16 18 19 21 12 8 6 1 3 6 6 8 5 3 8 10 12 16 8 7 11 20 28
15 14 13 13 11 10 11 12 14 17 19 21 25 28 30 30 31 18 6 4 3 11 15 11 10 16 6 6 4 5 3 6 1 4 2 2 6 8 9 16 15 13 17 25 25
17 16 15 14 13 12 12 14 15 17 20 23 25 27 28 26 6 2 4 1 4 11 12 13 19 9 6 5 6 5 6 4 3 6 7 1 7 5 17 11 13 15 12 15 22
19 17 16 15 14 14 13 13 15 18 20 23 25 26 26 9 6 1 2 6 10 11 11 12 7 5 5 6 7 2 4 3 4 4 6 5 6 7 15 9 10 12 13 16 11
19 18 17 16 14 14 14 15 16 18 20 22 23 21 14 3 9 15 6 7 11 8 13 9 8 6 6 6 7 2 5 2 8 6 3 4 3 9 11 12 11 14 13 11 10
21 20 18 17 16 16 16 16 17 17 19 21 20 18 4 8 14 12 6 6 14 13 15 14 4 6 5 5 4 4 5 7 3 7 5 4 7 8 7 11 11 12 10 9 10
23 23 21 21 20 18 18 19 18 18 18 18 18 11 6 16 22 27 20 9 13 13 5 13 5 5 8 7 7 4 6 8 8 6 6 7 2 8 10 11 12 11 10 10 11
4 11 19 24 23 23 22 20 19 18 18 17 14 8 8 18 23 25 24 24 16 11 12 13 5 5 4 5 6 4 3 4 9 12 5 9 5 7 12 14 12 11 10 10 10
8 8 7 7 6 9 16 16 18 18 17 12 9 4 10 15 14 24 20 15 16 16 16 12 2 5 6 3 4 4 6 8 12 15 7 5 4 4 9 14 13 12 11 11 10
12 9 8 10 9 11 10 10 12 14 9 7 9 6 10 10 16 20 13 17 11 7 5 3 3 3 2 2 6 7 9 7 5 7 6 8 5 14 14 13 14 14 13 13 11
9 10 6 7 6 10 6 5 4 3 7 9 10 7 15 12 9 4 10 10 9 5 8 5 3 7 12 11 12 11 3 5 2 2 4 7 8 13 13 9 13 15 14 13 13
10 9 8 5 3 4 3 3 2 2 8 17 20 21 28 22 10 11 18 7 8 13 7 8 13 11 16 14 7 5 3 6 5 7 6 8 8 7 17 16 16 15 15 15 13
13 14 14 11 4 6 5 2 2 10 5 7 13 17 14 22 17 19 11 10 8 11 12 13 11 17 17 11 3 5 4 5 7 6 2 7 4 7 6 12 11 13 14 18 17
12 8 15 12 7 9 6 8 6 5 4 6 9 9 17 15 17 31 27 9 8 13 15 12 18 16 3 6 4 6 6 6 7 6 5 4 5 5 8 15 16 12 15 15 15
12 11 10 12 2 7 5 14 11 6 5 1 8 7 7 21 7 19 34 18 17 16 7 8 7 9 8 8 9 6 8 2 4 4 3 2 4 6 4 9 13 13 17 15 15
13 13 12 12 21 18 3 16 6 4 8 6 4 4 8 21 19 4 19 20 14 17 18 17 9 7 4 6 4 2 3 2 3 2 5 6 8 5 11 14 13 15 16 15 11
15 16 18 17 6 14 12 9 3 4 5 6 5 8 9 9 19 19 5 18 16 16 22 19 22 17 8 3 1 4 6 1 2 1 7 10 9 14 4 13 20 20 16 14 14
17 19 21 22 24 19 7 4 5 12 10 9 3 9 11 7 10 18 15 9 9 17 3 14 14 18 8 9 6 7 7 5 5 4 3 4 7 1 7 15 15 16 16 14 12
17 22 26 25 23 19 4 8 10 8 9 5 7 6 8 9 6 13 15 11 10 15 18 3 7 6 16 5 15 5 11 9 6 2 0 4 2 6 10 11 13 14 15 12 11
18 16 25 28 17 8 5 7 8 14 10 2 8 7 3 6 11 11 11 8 16 16 11 7 4 4 3 5 13 6 3 6 1 3 5 5 7 5 8 8 8 10 12 13 13
13 5 14 28 21 4 8 10 13 12 16 6 5 7 10 11 2 5 4 9 8 11 15 14 11 4 4 2 9 5 10 3 5 5 4 0 5 5 8 10 10 9 11 12 12
9 5 15 30 10 3 9 7 8 12 13 9 2 6 13 10 12 13 11 15 8 6 5 10 6 8 7 5 3 5 6 6 4 4 3 3 5 6 8 9 8 8 8 5 15
3 2 14 34 10 13 14 23 9 10 18 5 5 3 3 6 4 6 14 3 1 7 6 4 3 4 2 4 2 2 2 6 4 3 6 4 5 4 7 7 9 9 5 14 14
1 2 3 8 12 19 22 25 25 11 17 12 5 7 6 7 9 5 2 4 8 4 2 4 2 6 7 4 5 5 5 3 5 4 4 9 6 7 4 5 1 6 7 9 15
3 4 4 6 11 17 24 18 26 23 18 6 6 11 9 5 6 2 4 2 3 6 4 2 1 2 2 5 2 4 5 5 5 5 6 6 10 5 5 4 5 8 11 14 14
3 2 3 2 8 23 20 24 20 26 19 18 16 13 8 12 7 1 5 2 2 2 1 0 4 3 3 5 5 3 10 7 6 5 5 5 9 6 8 7 4 9 14 14 14
7 5 3 3 7 12 18 29 31 21 9 18 21 13 13 16 2 2 5 6 3 1 1 2 4 2 4 5 4 4 7 5 4 7 5 8 9 4 5 5 5 7 9 11 14
Wind_Direction
263 265 271 275 281 292 303 313 320 326 330 332 334 335 334 334 326 326 271 220 277 328 331 325 337 335 297 236 242 283 31 277 296 330 173 133 111 69 84 86 60 68 102 136 131
261 265 267 272 275 284 297 306 314 322 326 329 331 333 333 335 325 292 269 237 346 345 338 334 316 320 324 283 286 129 139 256 151 19 104 65 115 120 98 95 98 95 82 99 119
258 260 263 267 274 282 289 302 312 318 322 326 330 334 332 333 307 265 173 224 322 320 317 303 285 283 275 302 250 214 206 281 25 30 14 78 60 61 113 107 131 122 108 96 86
255 258 261 264 271 278 286 295 307 316 321 324 328 334 335 333 299 233 248 298 311 303 302 292 287 294 277 278 282 116 286 259 124 39 359 18 53 63 95 101 101 103 102 92 83
254 254 256 259 264 272 283 292 302 312 317 322 326 333 343 315 256 272 293 315 308 294 269 277 303 301 282 321 324 155 279 232 124 133 270 319 83 121 105 105 103 99 98 107 104
253 253 252 253 257 265 273 283 291 302 310 315 324 329 299 266 275 255 271 292 277 283 282 280 292 314 286 289 312 19 356 313 288 191 214 137 131 108 152 123 116 109 105 93 98
249 253 254 256 258 260 268 275 280 291 298 307 317 325 255 243 281 281 278 255 267 288 300 321 16 3 332 315 329 14 330 312 271 242 215 136 254 138 150 134 130 126 123 112 99
207 241 251 251 253 260 262 262 275 285 292 299 305 292 254 269 269 274 269 264 251 256 265 291 327 293 245 293 342 287 294 260 255 212 203 121 236 159 153 139 136 133 124 114 106
339 342 343 311 259 237 238 254 272 283 286 294 299 226 269 294 250 256 247 253 251 228 247 266 4 232 313 222 338 245 236 227 262 206 150 131 116 201 155 150 151 148 138 130 121
293 302 332 321 313 301 290 279 274 275 274 261 246 303 252 253 253 240 233 232 246 206 221 185 265 242 288 153 215 220 225 268 228 184 142 188 156 170 181 168 163 156 152 148 130
270 277 298 293 324 326 316 303 267 234 217 203 187 234 292 320 268 211 203 223 247 209 193 222 189 216 223 224 235 255 266 284 311 123 112 183 161 187 190 185 165 166 164 144 140
239 242 223 203 323 331 324 316 67 303 289 244 254 264 264 276 289 267 229 186 216 228 192 233 237 228 238 242 243 224 258 284 296 184 154 203 217 216 192 198 176 170 161 140 138
263 226 211 198 188 258 235 225 307 352 274 242 236 245 233 236 246 256 191 201 218 219 225 216 238 219 235 245 194 256 225 257 267 294 158 150 239 241 221 177 176 170 156 145 150
256 251 196 167 154 215 228 218 212 50 288 266 223 253 213 218 250 225 243 193 218 226 224 245 237 254 171 229 208 223 242 255 264 250 240 119 283 261 246 183 181 163 146 150 150
235 229 205 192 212 176 234 185 158 110 300 217 198 178 187 188 139 208 216 225 220 228 222 234 211 245 237 192 220 240 264 282 298 309 339 316 287 230 176 172 164 135 131 133 137
238 221 202 222 243 238 285 158 141 103 236 288 135 189 145 201 237 12 196 218 235 244 252 249 261 259 292 223 213 202 111 341 333 45 275 193 213 239 233 196 157 143 143 146 143
235 224 213 214 226 239 227 164 98 192 256 238 187 175 206 197 220 232 177 201 211 221 235 241 248 257 251 227 99 106 102 330 321 238 239 199 223 239 244 175 159 151 145 141 136
237 230 230 233 239 251 242 179 194 198 218 5 279 189 197 218 215 216 213 208 232 235 275 222 242 224 234 177 173 179 159 166 216 201 275 288 238 254 65 87 132 146 139 138 142
234 232 237 238 248 246 247 215 198 197 197 237 11 315 204 211 224 208 225 232 233 226 223 232 248 194 222 168 176 197 218 209 263 335 270 247 67 50 80 78 89 122 133 143 149
237 229 234 230 232 189 242 230 249 221 230 33 157 255 284 203 206 183 204 207 231 249 205 186 309 288 20 151 192 162 166 190 108 202 221 241 228 190 148 133 127 128 153 167 162
250 225 229 214 199 206 223 226 245 242 228 238 159 247 269 283 214 290 251 236 227 219 224 214 211 295 95 222 168 163 219 181 156 159 179 225 273 212 167 165 166 181 190 184 165
233 228 186 183 194 220 215 204 242 237 241 256 228 236 242 273 265 185 256 268 22 340 248 191 175 206 198 194 250 197 190 145 130 244 213 176 266 174 152 146 161 197 191 159 142
235 223 220 174 198 213 225 234 257 239 230 236 183 233 322 305 316 215 205 296 302 49 329 99 336 107 110 26 23 269 186 189 148 117 229 143 256 212 174 176 205 208 193 136 132
170 236 232 216 201 199 205 222 229 230 254 245 202 223 296 306 282 263 67 45 335 107 354 348 159 158 205 208 170 189 194 209 174 185 216 229 240 262 237 198 276 121 136 138 143
176 226 226 190 196 211 202 220 222 231 224 230 247 224 212 245 295 206 86 64 0 9 336 112 222 85 72 167 175 163 185 223 228 228 210 256 236 192 234 240 261 141 137 138 144
238 203 220 259 194 205 208 215 219 223 225 212 225 229 214 235 228 244 142 141 129 133 285 128 190 109 312 224 198 230 239 205 228 251 230 228 259 216 251 253 182 159 146 159 165
226 255 294 223 202 201 206 215 215 221 232 230 210 224 211 221 134 210 146 126 134 57 100 55 126 101 230 170 75 317 220 250 245 233 211 230 249 240 251 275 138 162 150 157 169